Wetbulb
54.26 51.43 50.80 52.15 52.56 52.03 50.97 49.13 48.62 50.82 52.88 51.55 51.58 51.76 53.40 55.53 56.49 58.89 62.09 64.00 65.41 66.76 68.96 69.33 70.91 72.68 72.28 73.95 76.15 77.39 76.80 78.66 76.89 75.27 75.23 74.54 73.79 74.82 74.88 74.94 76.10 75.41 74.80 74.62
51.97 51.07 52.14 51.80 51.21 50.16 49.53 48.89 49.19 51.41 52.05 51.92 51.37 50.93 53.55 54.97 58.26 60.22 61.35 62.33 63.01 64.26 65.34 65.02 66.42 68.07 69.61 71.97 74.63 76.11 77.22 78.03 77.03 76.03 77.02 75.84 75.13 75.16 74.79 74.75 76.43 75.73 75.04 74.70
50.93 51.77 51.60 51.10 50.73 49.63 50.52 49.09 49.24 48.29 50.60 51.85 51.03 49.97 51.89 55.56 58.49 59.68 61.36 62.31 62.17 60.75 60.63 61.77 61.98 61.89 63.46 65.96 68.62 72.75 75.29 77.57 77.42 77.98 77.07 76.08 76.16 75.42 74.37 74.72 74.38 75.01 74.56 74.31
51.13 51.78 50.00 49.97 49.10 49.90 47.96 51.55 49.05 48.22 48.04 45.10 50.73 44.10 50.52 54.00 56.02 57.73 58.68 60.11 60.13 60.08 59.06 58.09 57.76 58.13 59.58 59.81 61.73 68.45 68.91 71.12 73.48 76.24 76.00 77.48 74.19 73.24 73.68 74.23 73.85 74.60 75.20 75.09
50.34 50.11 49.53 49.14 49.99 50.63 48.22 50.84 49.05 48.79 47.87 47.55 47.27 45.22 49.38 54.06 53.57 55.42 57.21 58.31 59.24 58.33 57.11 55.59 55.70 56.08 57.61 60.26 60.18 61.07 61.89 64.27 66.88 69.33 73.82 71.82 75.34 74.96 75.43 74.59 74.38 77.25 76.28 76.31
51.64 53.64 51.30 51.12 51.44 51.50 51.55 49.42 49.73 49.62 48.01 42.62 46.72 46.29 49.38 51.48 53.69 53.84 56.60 57.45 57.68 57.16 57.44 55.27 55.40 56.05 55.81 59.45 59.74 60.56 60.52 60.74 62.37 62.70 66.96 65.21 65.28 68.42 68.67 68.72 70.90 72.77 72.11 74.58
51.15 51.15 52.47 51.94 49.66 52.19 50.56 48.81 43.29 42.40 42.67 42.69 49.68 46.49 50.67 53.52 54.19 54.70 55.35 56.11 57.28 57.23 56.51 55.99 56.42 55.57 55.93 56.65 57.26 57.17 59.26 59.88 61.36 61.36 61.55 63.58 64.03 64.47 64.85 64.68 64.94 64.94 66.90 67.64
46.08 45.15 50.38 51.50 49.23 48.28 48.64 47.63 42.74 37.61 40.01 42.77 48.84 43.22 49.33 54.28 55.68 56.03 56.80 57.21 56.84 56.28 55.67 54.76 55.44 54.74 55.02 56.48 57.94 56.51 56.40 57.52 59.15 60.04 60.36 61.54 62.85 64.48 64.12 65.76 66.00 65.90 66.68 66.70
46.98 46.40 50.65 50.49 50.99 50.14 48.36 45.82 51.36 45.22 45.12 41.76 44.23 49.53 53.75 53.88 53.65 54.45 54.70 56.47 55.05 55.30 54.70 55.21 56.02 55.82 55.64 55.00 56.57 58.44 59.85 59.29 59.70 59.80 60.19 61.51 61.24 62.39 62.32 63.03 62.91 62.84 64.44 65.54
49.59 44.91 49.83 50.05 50.49 50.53 48.93 51.17 44.21 45.93 38.78 37.70 42.69 44.82 47.37 50.83 50.88 51.70 53.00 54.90 55.59 55.30 55.21 54.90 54.46 54.63 56.04 53.92 54.28 57.28 56.12 56.66 58.66 59.11 59.62 59.70 60.42 60.87 61.47 61.94 61.80 63.02 63.26 63.07
50.66 48.06 46.78 48.08 47.14 46.95 48.88 47.56 47.15 47.11 45.46 40.17 38.98 43.74 52.33 51.04 51.73 51.50 52.96 54.65 56.24 54.40 55.50 56.28 56.14 56.03 56.60 53.84 53.59 53.16 53.81 53.82 54.10 56.30 57.91 58.25 58.25 58.56 60.31 60.34 60.61 61.45 62.59 62.71
51.37 48.40 44.38 46.63 50.70 51.18 49.22 47.09 47.61 43.26 42.15 44.79 43.53 43.23 52.58 52.08 52.31 51.99 52.88 54.43 56.51 57.14 55.96 55.86 57.18 57.61 56.81 56.08 55.85 53.42 54.14 52.27 52.85 54.82 54.41 54.67 55.56 56.87 58.00 57.46 57.82 59.45 60.35 61.23
51.27 46.94 42.47 44.80 47.97 49.54 46.98 47.77 48.26 48.15 46.90 41.76 39.49 42.69 53.13 52.56 52.34 52.36 52.15 53.33 55.72 57.60 55.76 55.74 57.20 57.03 56.67 56.73 56.14 54.95 53.85 53.38 53.44 53.37 54.67 56.14 55.96 56.60 57.16 57.53 58.01 58.11 57.34 57.04
50.56 47.75 44.85 41.25 45.08 47.81 45.25 46.35 47.81 47.00 42.20 42.93 43.78 45.10 48.64 50.61 50.61 51.37 52.69 54.03 54.48 56.67 57.48 56.99 56.94 57.59 57.45 56.84 55.59 55.74 54.58 55.27 54.38 54.18 54.45 55.32 55.37 56.85 56.29 57.95 58.08 58.41 58.00 57.39
50.02 44.62 46.60 46.98 47.60 47.25 45.86 44.94 45.40 44.41 45.14 42.16 44.07 44.54 47.50 49.75 50.42 51.31 52.77 53.47 53.69 54.62 55.30 56.56 57.00 58.20 57.62 57.50 57.32 56.87 56.15 55.11 55.10 53.76 54.16 54.28 55.34 56.23 56.33 56.43 56.69 57.24 58.34 57.63
51.72 45.07 46.55 43.85 46.54 46.35 43.96 45.34 45.57 45.18 45.03 44.49 44.27 44.03 50.07 51.28 51.28 51.58 52.49 53.33 53.69 54.10 54.73 56.37 56.37 58.18 56.98 57.16 55.89 55.19 55.85 56.22 56.36 54.95 54.26 54.53 54.56 54.90 56.60 55.58 56.10 56.60 57.05 57.21
48.61 46.30 44.24 41.04 45.79 43.51 39.86 43.51 44.29 44.73 45.90 45.14 42.47 47.05 50.76 50.23 50.52 51.64 52.54 53.55 54.30 54.77 55.81 56.78 57.78 58.32 58.48 57.71 56.06 55.64 56.10 56.56 55.95 55.44 55.52 55.14 54.82 53.96 54.14 54.81 55.02 55.76 56.46 58.32
47.88 46.83 45.32 41.29 43.31 34.65 45.15 48.06 46.63 44.58 46.10 47.81 47.87 48.88 49.94 50.40 52.01 52.67 54.20 54.53 54.98 55.26 56.18 55.96 58.06 58.06 57.68 57.32 57.09 57.22 56.47 56.27 55.88 55.84 55.37 55.36 54.47 53.93 54.34 55.03 55.48 56.05 55.98 56.71
50.69 47.21 42.60 40.10 39.17 42.52 44.40 47.39 45.85 45.33 44.92 48.99 48.03 49.12 50.38 51.29 51.76 51.86 55.04 56.08 56.35 55.36 55.92 55.76 56.03 56.59 56.70 56.34 56.69 56.61 56.52 56.10 55.46 55.10 55.16 55.17 54.74 54.08 54.15 54.04 54.71 55.30 55.44 56.13
48.51 48.62 44.02 42.02 36.68 32.91 44.15 47.81 49.39 49.11 40.46 50.13 49.82 48.98 49.42 50.35 45.29 49.63 53.65 54.95 54.86 54.83 55.20 55.54 55.75 55.52 56.43 55.73 57.19 55.66 55.44 55.16 54.76 54.63 54.75 55.16 54.90 54.55 53.94 54.28 54.25 54.79 53.45 53.14
42.85 43.92 40.84 39.67 38.48 41.64 47.90 49.41 50.17 38.70 42.92 49.94 50.70 50.08 50.20 48.08 49.91 52.39 54.09 54.21 55.04 55.69 54.71 55.59 54.87 54.21 55.04 55.26 55.58 54.62 54.54 53.70 54.73 54.59 54.51 54.36 54.51 54.27 54.15 54.57 54.78 54.03 54.75 55.37
43.09 41.02 40.57 40.96 38.56 35.06 49.66 48.60 43.61 49.26 51.80 50.87 50.86 51.40 50.37 51.63 51.60 52.94 52.44 52.65 52.68 52.61 52.27 52.98 53.15 53.25 54.22 54.71 54.56 53.58 52.95 54.14 54.14 53.92 53.32 53.30 53.36 53.04 52.64 54.16 54.08 54.98 54.77 54.08
40.94 45.15 43.44 43.50 43.69 49.40 51.54 50.97 52.67 53.08 51.17 50.94 50.65 51.57 50.79 51.40 50.47 51.78 51.85 51.60 52.50 52.36 52.15 50.74 50.88 52.04 52.65 52.73 52.60 50.88 51.54 52.01 51.88 52.10 51.87 52.22 52.56 52.49 52.60 52.78 53.20 52.74 53.42 52.05
46.87 49.64 44.88 45.09 47.04 48.52 49.69 51.09 51.71 51.76 50.77 51.06 51.87 51.49 50.91 50.74 50.78 51.83 51.72 51.87 52.14 52.62 51.27 51.17 51.10 50.52 50.57 51.61 51.39 51.58 51.49 51.23 50.34 49.85 50.44 51.68 51.28 51.07 52.37 51.55 50.03 51.25 49.69 49.65
47.00 47.47 45.31 45.00 47.43 48.33 49.09 49.76 50.33 50.28 50.58 50.19 50.77 50.71 50.85 51.06 51.06 50.49 49.87 48.39 49.32 49.82 50.74 50.93 49.69 49.30 49.31 50.69 50.41 51.02 50.63 49.89 49.06 48.98 49.23 50.37 50.39 50.30 50.39 50.92 49.05 49.10 48.93 45.21
48.15 45.69 43.49 42.49 47.81 47.25 47.81 49.96 50.59 49.44 49.44 49.94 49.60 50.98 50.43 51.27 50.17 50.48 50.19 49.05 48.36 48.27 49.66 49.44 49.07 48.23 48.77 49.08 47.29 47.08 48.86 49.62 49.25 48.46 48.59 49.16 49.56 48.11 48.77 49.46 49.52 43.25 43.21 42.59
MSLP
1006.13 1005.03 1004.16 1004.38 1004.97 1004.79 1004.33 1004.10 1003.70 1003.65 1004.08 1004.71 1003.77 1002.99 1002.88 1003.36 1004.19 1004.98 1006.08 1007.93 1008.63 1008.55 1009.16 1010.14 1009.53 1009.00 1008.06 1007.40 1007.20 1007.70 1008.24 1008.64 1009.24 1009.40 1009.77 1009.99 1010.04 1010.60 1010.89 1011.10 1011.29 1011.80 1012.03 1011.96
1005.73 1004.76 1005.82 1006.17 1006.06 1005.68 1005.23 1004.64 1004.10 1004.40 1004.57 1004.72 1003.97 1003.22 1003.03 1003.31 1004.79 1006.70 1008.02 1009.69 1010.87 1011.34 1011.68 1012.13 1012.25 1011.86 1011.06 1010.15 1009.04 1008.77 1008.64 1008.85 1009.32 1009.13 1009.32 1009.22 1009.40 1009.51 1010.16 1010.46 1010.81 1011.48 1012.11 1012.28
1004.93 1005.66 1006.92 1006.56 1006.06 1005.82 1005.22 1005.33 1005.08 1005.29 1005.06 1004.45 1003.74 1002.54 1002.62 1003.82 1005.81 1007.47 1008.88 1010.47 1011.92 1013.08 1013.64 1014.00 1014.15 1014.11 1013.65 1012.65 1011.85 1010.88 1009.54 1009.17 1009.48 1009.51 1009.21 1009.32 1009.18 1009.18 1009.18 1009.50 1010.14 1011.02 1011.34 1011.79
1005.58 1006.77 1006.87 1006.64 1006.29 1006.72 1005.71 1006.13 1006.50 1006.00 1005.30 1003.66 1003.48 1002.22 1002.33 1003.79 1005.86 1007.88 1009.28 1011.18 1012.60 1013.96 1014.99 1015.46 1015.57 1015.44 1015.08 1014.68 1013.92 1012.60 1011.88 1010.82 1010.58 1010.10 1009.50 1009.46 1009.22 1008.95 1008.90 1009.24 1009.10 1009.81 1010.75 1010.93
1006.10 1006.72 1006.90 1006.82 1006.67 1007.56 1006.62 1007.06 1006.72 1006.18 1005.42 1004.64 1003.51 1003.04 1002.07 1003.72 1005.40 1007.83 1009.77 1011.89 1013.38 1014.99 1015.89 1016.41 1016.46 1016.30 1015.91 1015.39 1014.98 1014.40 1013.68 1012.82 1012.29 1011.47 1010.82 1010.76 1009.92 1009.31 1009.18 1009.05 1009.48 1010.28 1010.84 1010.93
1006.66 1007.66 1007.85 1007.58 1007.97 1008.03 1007.94 1007.28 1006.19 1005.51 1004.70 1003.76 1002.90 1002.59 1002.75 1004.35 1006.88 1008.63 1010.34 1012.34 1014.23 1015.44 1016.22 1017.02 1017.06 1016.78 1016.20 1015.94 1015.48 1015.15 1014.61 1014.50 1014.00 1013.50 1012.58 1012.38 1012.10 1011.82 1011.67 1011.32 1011.28 1011.44 1011.58 1011.52
1006.70 1007.20 1007.95 1008.90 1008.03 1007.60 1007.95 1007.12 1005.46 1003.94 1003.21 1002.40 1003.18 1004.10 1004.74 1007.22 1008.64 1009.88 1011.25 1012.98 1014.42 1015.61 1016.47 1016.96 1017.07 1017.24 1017.07 1016.24 1016.01 1015.75 1015.48 1015.26 1015.09 1014.82 1014.34 1013.72 1013.52 1013.42 1013.09 1012.63 1012.93 1013.19 1012.96 1012.53
1006.75 1006.59 1007.86 1009.03 1008.79 1008.47 1008.24 1008.20 1007.08 1005.18 1003.87 1002.87 1004.10 1004.30 1006.22 1008.18 1009.44 1010.43 1011.65 1013.50 1014.71 1015.91 1016.89 1017.23 1017.57 1017.77 1017.71 1017.44 1016.85 1016.40 1016.14 1015.91 1015.65 1015.52 1015.24 1014.78 1014.60 1014.48 1014.07 1013.86 1014.02 1014.12 1013.69 1013.29
1008.07 1007.70 1009.27 1009.68 1009.80 1010.00 1008.74 1008.64 1008.46 1007.74 1006.62 1005.50 1004.72 1005.48 1007.10 1008.27 1009.31 1010.42 1011.68 1013.13 1014.90 1016.06 1017.09 1017.26 1017.48 1017.90 1018.04 1017.82 1017.72 1017.34 1016.44 1016.42 1016.06 1016.04 1015.66 1015.40 1015.32 1015.07 1015.00 1015.06 1015.01 1015.18 1014.80 1014.09
1009.72 1009.64 1008.96 1009.89 1010.62 1010.13 1010.16 1009.80 1009.10 1008.49 1007.35 1006.16 1005.23 1004.80 1005.46 1008.06 1009.34 1010.57 1011.42 1012.46 1014.62 1016.04 1016.84 1017.41 1017.84 1017.98 1018.15 1018.10 1018.17 1018.11 1017.61 1017.70 1017.20 1017.02 1016.68 1016.38 1016.23 1015.84 1015.58 1015.54 1015.54 1015.32 1015.08 1014.76
1011.02 1011.16 1010.06 1010.89 1009.79 1009.39 1009.83 1009.60 1009.96 1009.71 1008.88 1007.60 1007.12 1006.56 1008.02 1008.75 1010.05 1011.02 1011.68 1012.21 1013.68 1015.42 1016.10 1016.84 1017.50 1017.87 1018.14 1018.51 1018.44 1018.71 1018.21 1018.61 1018.20 1018.17 1017.86 1017.26 1016.92 1016.66 1016.43 1016.29 1016.03 1015.89 1015.34 1014.90
1012.21 1012.15 1010.88 1009.93 1010.20 1010.92 1011.00 1010.64 1010.36 1009.98 1009.61 1009.13 1008.83 1008.23 1008.76 1009.60 1010.23 1011.07 1011.46 1011.84 1012.54 1014.05 1015.23 1016.17 1016.80 1017.31 1017.61 1018.34 1018.61 1018.81 1018.88 1019.11 1018.78 1018.93 1018.70 1018.23 1017.84 1017.56 1017.21 1016.70 1016.49 1016.25 1015.74 1015.22
1012.84 1012.40 1011.41 1009.74 1010.20 1011.31 1011.42 1011.15 1011.28 1011.16 1011.21 1010.74 1009.95 1008.97 1009.36 1009.85 1010.22 1010.21 1010.68 1011.05 1011.40 1012.84 1014.01 1015.32 1015.95 1016.80 1017.04 1017.72 1018.36 1018.71 1019.00 1019.20 1019.37 1019.26 1018.92 1018.54 1018.14 1017.71 1017.35 1017.00 1016.73 1016.64 1016.56 1016.06
1014.52 1013.51 1012.71 1011.38 1010.02 1010.58 1010.65 1010.80 1011.08 1011.22 1010.97 1009.95 1009.09 1008.58 1008.38 1008.63 1009.19 1009.97 1010.31 1010.42 1010.78 1011.48 1012.71 1013.85 1014.89 1016.02 1016.58 1017.18 1017.79 1018.12 1018.44 1018.39 1018.60 1018.52 1018.22 1018.36 1017.77 1017.50 1017.40 1017.14 1016.77 1016.48 1016.21 1015.95
1014.67 1013.93 1013.14 1012.22 1011.58 1011.16 1010.90 1010.80 1010.69 1010.52 1010.31 1010.01 1009.49 1009.02 1009.00 1009.18 1009.50 1010.01 1010.51 1010.60 1010.56 1010.52 1011.50 1012.92 1013.85 1014.86 1016.20 1016.53 1016.85 1017.02 1017.13 1017.48 1017.85 1017.96 1017.80 1017.80 1017.59 1017.28 1017.20 1017.12 1016.68 1016.41 1015.99 1015.53
1014.13 1014.10 1013.67 1012.71 1012.07 1011.60 1011.00 1010.68 1010.58 1010.40 1010.08 1009.76 1009.58 1009.10 1009.21 1009.18 1009.63 1010.07 1010.45 1010.75 1010.58 1010.28 1010.80 1012.24 1013.85 1014.21 1015.50 1015.76 1015.85 1016.12 1016.32 1016.54 1017.00 1017.16 1017.10 1017.12 1017.20 1017.05 1017.04 1016.81 1016.49 1016.24 1015.98 1015.91
1013.88 1013.93 1013.70 1012.50 1011.88 1011.92 1011.29 1010.29 1010.12 1009.88 1009.72 1009.50 1009.16 1009.04 1009.24 1009.68 1009.99 1010.54 1011.04 1011.33 1010.81 1010.90 1011.55 1011.81 1013.21 1014.41 1015.26 1015.83 1016.21 1016.11 1016.02 1015.91 1016.24 1016.35 1016.34 1016.33 1016.46 1016.42 1016.52 1016.45 1016.20 1015.69 1015.99 1015.60
1014.02 1014.03 1013.98 1013.10 1012.56 1011.55 1010.10 1011.02 1011.06 1010.76 1010.26 1009.92 1009.83 1009.97 1010.15 1010.13 1010.66 1011.32 1011.58 1011.84 1011.60 1012.10 1012.30 1013.32 1014.04 1015.04 1015.46 1015.78 1015.88 1015.80 1015.99 1015.89 1015.84 1015.80 1015.75 1015.69 1015.95 1016.18 1016.08 1015.72 1015.47 1015.57 1015.49 1015.26
1013.93 1014.37 1013.78 1013.41 1012.64 1011.64 1010.77 1010.56 1010.93 1010.85 1010.60 1010.20 1010.22 1010.31 1010.58 1010.94 1011.47 1012.07 1012.58 1012.65 1012.87 1013.46 1013.66 1014.04 1014.54 1015.10 1015.62 1015.74 1015.86 1015.78 1015.80 1015.61 1015.38 1015.22 1015.19 1015.32 1015.72 1015.74 1015.60 1015.24 1015.33 1015.30 1015.10 1014.86
1014.21 1014.68 1014.44 1013.55 1012.91 1012.21 1011.00 1011.34 1011.98 1012.02 1011.32 1011.23 1011.38 1011.55 1011.82 1011.90 1011.67 1012.88 1013.35 1013.34 1014.11 1014.54 1014.92 1015.12 1015.19 1015.03 1015.43 1016.02 1016.20 1016.15 1015.76 1015.36 1015.18 1015.14 1015.33 1015.41 1015.45 1015.33 1015.48 1015.39 1015.36 1015.19 1015.19 1014.79
1013.56 1013.90 1013.90 1013.77 1013.41 1012.54 1011.72 1011.85 1012.41 1012.68 1013.03 1012.98 1012.70 1012.62 1012.36 1012.44 1012.80 1013.34 1013.90 1013.97 1014.32 1014.66 1015.08 1015.39 1015.48 1015.50 1015.72 1016.07 1016.42 1016.44 1016.14 1015.87 1015.67 1015.71 1015.68 1015.55 1015.33 1015.50 1015.70 1015.58 1015.23 1015.00 1014.56 1014.52
1012.78 1013.10 1013.23 1013.42 1013.31 1013.22 1012.60 1012.65 1012.99 1013.77 1013.46 1013.41 1013.15 1013.05 1013.17 1013.24 1013.37 1013.65 1014.28 1014.24 1014.65 1015.34 1015.84 1016.02 1016.05 1015.98 1016.18 1016.30 1016.41 1016.40 1016.38 1016.31 1016.11 1015.88 1015.78 1015.56 1015.52 1015.63 1015.50 1015.44 1015.22 1014.68 1014.60 1014.34
1013.33 1013.22 1013.21 1013.44 1013.06 1013.86 1013.56 1013.28 1013.38 1013.68 1013.59 1013.43 1013.51 1013.86 1014.32 1013.62 1013.55 1014.12 1014.53 1015.57 1015.89 1016.43 1016.63 1017.02 1016.86 1016.45 1016.46 1016.64 1016.82 1016.90 1016.89 1016.84 1016.53 1016.18 1015.97 1015.69 1015.38 1015.50 1015.42 1015.31 1014.98 1014.72 1014.58 1014.37
1012.92 1013.28 1013.50 1013.82 1013.25 1012.86 1012.89 1013.02 1013.34 1013.48 1013.50 1013.50 1013.80 1013.84 1013.96 1014.16 1013.99 1014.48 1015.72 1016.42 1016.47 1016.44 1016.58 1016.57 1016.55 1016.54 1016.64 1016.83 1016.80 1016.80 1016.80 1016.85 1016.83 1016.53 1016.24 1015.73 1015.54 1015.50 1015.21 1015.02 1014.65 1014.37 1014.57 1014.61
1013.30 1013.50 1013.62 1013.43 1013.41 1013.26 1013.19 1013.31 1013.61 1013.94 1014.14 1014.30 1014.14 1013.95 1013.84 1014.38 1015.29 1016.04 1016.66 1017.21 1017.58 1016.80 1016.45 1016.53 1016.84 1016.82 1016.83 1016.82 1016.87 1016.88 1016.95 1017.27 1017.20 1017.04 1016.57 1016.13 1015.77 1015.45 1014.78 1014.64 1015.01 1014.77 1015.14 1015.53
1013.27 1013.34 1013.62 1013.40 1013.62 1013.83 1013.76 1014.00 1014.36 1014.56 1014.23 1014.46 1014.79 1014.66 1015.41 1015.50 1015.84 1016.75 1017.11 1017.38 1017.28 1017.32 1017.04 1016.86 1017.16 1017.48 1017.57 1017.42 1017.89 1017.98 1017.86 1017.71 1017.34 1016.84 1016.27 1015.85 1015.54 1015.39 1015.07 1014.84 1014.58 1015.10 1015.07 1015.24
Wind_Speed
8 13 4 13 9 11 8 6 7 3 3 6 13 11 6 7 5 6 11 10 11 15 19 19 19 22 14 12 7 7 10 10 9 11 10 10 10 10 12 12 12 7 5 8
9 3 6 3 5 7 4 8 8 4 4 8 13 13 11 7 11 8 10 10 12 16 17 16 18 19 19 22 13 9 6 10 11 10 9 10 10 11 10 7 9 11 8 9
9 13 1 7 5 7 8 8 9 9 11 17 16 19 16 13 11 8 10 12 15 15 15 17 18 17 18 20 19 16 15 5 7 11 8 7 8 7 9 10 10 10 13 12
2 6 4 7 6 6 13 7 6 10 11 12 2 7 8 18 16 9 8 13 13 14 14 15 16 17 15 15 16 19 17 16 9 7 10 10 9 10 9 8 9 11 13 13
7 4 4 8 6 6 12 8 12 13 14 15 17 11 1 19 15 9 11 13 13 13 13 15 16 15 14 14 14 15 17 19 17 16 8 7 11 4 5 2 7 8 3 7
7 3 5 8 7 7 10 14 15 16 16 15 21 10 8 7 10 6 11 13 12 11 11 13 13 13 13 12 12 13 16 16 16 16 15 14 15 11 7 9 8 6 3 2
11 13 5 5 10 12 10 12 11 9 12 8 9 6 12 10 8 8 9 11 11 9 10 11 12 13 16 17 12 12 13 14 12 12 13 14 13 12 11 10 8 7 6 7
12 9 9 4 5 10 12 7 9 14 12 9 11 8 11 9 8 8 10 10 7 9 8 11 12 12 13 14 15 15 13 13 12 11 11 10 8 5 8 9 6 4 4 4
10 5 7 0 3 5 10 9 9 10 15 13 15 11 12 8 7 6 4 9 5 7 7 8 10 11 10 11 14 15 14 13 12 11 11 11 11 11 9 9 7 7 8 5
3 10 6 7 6 10 10 10 7 9 8 12 11 9 3 11 5 4 5 6 8 3 7 8 7 8 7 10 8 12 13 13 15 13 12 11 11 12 10 8 9 7 5 6
7 7 3 2 10 9 6 7 8 8 11 8 10 3 8 7 7 5 7 4 10 10 8 7 6 6 8 8 8 6 7 8 9 11 11 10 10 10 9 8 8 7 8 7
8 7 11 14 10 5 10 13 12 9 10 7 10 11 9 5 5 4 8 8 5 9 5 8 7 2 4 7 7 7 8 9 7 4 6 6 7 8 8 7 9 9 9 8
3 6 8 12 11 7 8 8 9 9 9 13 12 10 9 5 11 6 9 10 7 12 12 9 7 6 6 9 7 6 3 2 5 9 6 3 4 5 6 5 5 5 6 7
3 9 12 12 19 14 9 9 12 12 12 14 14 16 12 9 9 10 11 10 12 13 16 15 10 8 6 9 10 7 7 8 5 3 2 2 3 4 6 7 7 5 2 3
5 12 14 16 17 18 16 17 17 19 17 19 18 20 18 16 13 9 9 11 13 11 16 16 11 9 6 9 10 8 7 4 4 3 5 3 7 7 7 7 8 7 7 6
7 11 12 16 15 16 18 19 19 21 21 21 20 20 16 13 5 8 9 12 16 10 7 14 5 10 10 10 6 1 5 6 6 5 6 2 4 5 5 6 8 7 6 7
11 11 13 14 11 8 13 11 12 14 18 17 16 13 8 9 10 11 11 12 14 7 5 5 5 6 9 6 5 6 10 2 5 5 7 6 5 5 4 7 8 7 6 5
12 14 8 12 13 15 5 0 7 9 11 9 8 9 9 8 9 11 5 12 7 8 9 4 6 6 6 7 9 6 5 6 8 8 8 7 7 10 9 8 8 7 8 9
11 10 10 9 11 11 16 9 3 9 10 6 6 7 10 11 8 4 7 9 7 7 3 6 9 7 5 3 2 5 7 8 8 9 10 9 10 11 11 10 10 10 11 8
8 8 11 12 9 8 5 4 3 8 11 11 8 6 9 9 11 7 4 8 7 10 8 6 5 2 4 5 1 6 10 10 11 10 11 12 12 11 13 13 12 8 8 10
8 8 11 10 9 9 10 5 5 8 5 7 8 8 9 10 9 1 4 0 2 3 2 4 5 6 6 7 6 9 10 11 11 11 12 12 11 11 10 11 10 11 10 10
8 6 6 7 10 10 2 4 9 8 7 7 10 12 14 13 11 7 7 4 4 2 4 5 6 6 7 7 7 9 10 11 12 12 12 13 8 7 6 8 10 10 10 10
6 9 7 2 2 4 6 6 5 7 13 15 13 11 12 16 13 6 3 5 6 5 6 8 11 11 8 8 9 11 11 12 13 13 12 13 9 8 6 6 9 7 7 8
10 10 8 10 7 9 11 11 9 11 13 13 11 14 12 15 9 5 5 5 8 5 4 5 7 8 8 7 8 9 11 12 14 15 15 13 10 10 8 6 7 4 5 8
10 10 10 13 14 14 13 8 11 12 12 14 15 17 15 8 7 8 4 7 10 8 7 7 7 8 9 11 12 12 11 12 10 11 11 10 9 10 9 7 7 6 6 4
9 8 9 9 11 11 10 9 11 12 12 11 11 14 9 4 5 4 1 4 5 7 8 7 10 12 12 13 12 11 9 9 11 12 9 8 9 6 8 9 8 6 6 7
Wind_Direction
203 239 241 27 347 344 333 300 287 301 11 278 271 281 277 249 141 47 45 38 17 18 27 11 357 354 343 328 328 203 210 201 219 205 202 214 208 212 214 217 212 206 213 211
215 204 43 315 304 284 274 265 246 292 235 279 284 265 259 237 89 59 55 53 33 18 21 15 13 359 353 352 345 307 246 210 208 217 220 219 214 215 202 216 195 209 191 228
303 71 76 265 220 268 230 304 345 317 318 268 247 257 222 124 118 87 66 47 48 39 27 20 17 13 5 357 348 341 316 249 208 252 217 223 255 232 214 211 187 200 215 206
42 82 270 259 274 318 294 84 285 283 284 286 2 287 169 154 145 101 53 49 40 45 38 34 29 22 20 13 7 357 12 18 346 259 263 231 223 224 219 215 211 180 198 210
78 210 250 273 8 337 299 343 291 282 273 278 265 238 36 157 142 81 58 53 44 51 47 39 32 24 18 27 27 24 22 24 14 12 16 357 249 295 7 17 56 116 208 233
316 45 273 343 311 267 315 284 280 260 252 250 242 234 96 102 69 76 65 59 52 52 55 55 43 37 28 39 33 33 33 30 25 24 36 45 39 29 50 50 50 25 18 241
174 214 144 276 275 201 250 296 285 242 212 250 108 213 67 103 77 56 56 45 60 56 66 63 49 44 33 28 55 39 32 41 28 25 26 36 40 36 44 37 43 15 12 9
281 196 172 128 330 331 305 307 293 301 292 319 137 235 105 99 91 68 66 82 43 61 70 74 65 49 35 26 12 57 47 40 34 27 25 29 27 20 43 35 47 25 23 347
320 229 118 274 309 312 19 258 16 308 278 261 279 103 141 144 126 83 68 103 56 90 102 93 67 60 49 47 21 22 30 47 47 41 41 43 38 40 38 36 33 1 352 350
22 287 184 101 287 227 266 352 259 207 269 272 261 254 98 159 87 51 7 90 124 122 158 130 88 79 77 64 44 39 35 27 19 29 30 30 28 27 32 41 26 8 16 355
321 258 214 248 220 281 196 227 216 305 303 290 277 298 46 56 89 356 332 342 141 160 191 185 131 86 66 68 58 36 40 23 22 8 7 14 12 13 15 19 16 10 5 349
56 312 278 278 91 307 281 282 297 278 269 247 287 283 61 91 46 310 282 282 172 165 185 209 205 153 54 89 74 49 33 6 0 331 345 356 2 357 355 10 0 353 3 4
71 235 274 241 187 180 254 258 260 271 283 271 281 272 145 174 240 309 304 289 252 183 184 195 212 223 169 142 152 127 88 17 304 306 260 274 346 347 355 344 353 341 339 338
329 272 264 281 307 326 275 246 241 250 267 274 257 263 267 252 328 324 308 312 312 190 188 191 193 203 192 155 159 180 205 203 244 245 248 313 357 339 333 316 346 321 287 285
242 275 279 276 282 289 286 281 272 264 258 259 275 288 300 308 313 319 306 288 281 283 179 187 190 192 208 188 186 201 213 204 245 279 266 355 352 337 322 320 326 329 317 334
237 267 284 281 275 271 276 277 270 273 271 269 273 278 289 281 277 300 332 325 300 289 241 173 123 164 198 195 200 209 234 188 218 241 275 264 280 271 277 305 310 304 309 317
271 263 276 279 292 308 278 275 274 267 256 269 269 284 353 320 311 343 326 314 303 352 51 55 92 176 194 209 205 200 252 309 285 286 302 295 304 296 307 310 299 302 298 295
262 264 267 272 280 269 293 22 300 304 314 304 286 286 275 309 354 309 357 304 343 48 48 22 105 172 166 201 207 251 279 284 297 294 288 311 327 324 314 310 310 316 316 302
223 254 266 259 268 282 293 357 356 314 304 314 253 296 346 344 321 49 15 35 35 56 69 71 82 120 173 218 282 295 303 289 285 297 314 324 319 310 313 315 323 325 308 302
227 226 258 261 250 262 335 88 37 330 270 30 12 359 340 324 287 39 357 95 77 58 40 18 357 331 108 73 351 298 296 311 313 327 329 319 307 311 324 325 320 311 300 293
185 224 226 247 266 274 297 30 75 261 32 348 347 330 319 321 349 65 251 349 109 57 67 332 354 337 38 20 351 316 320 314 326 320 314 306 319 333 307 295 299 299 285 298
252 197 230 239 241 259 54 248 250 12 323 323 304 335 331 320 310 297 332 163 115 42 6 357 320 335 338 325 325 319 320 326 321 318 316 310 317 283 307 317 305 301 304 287
256 270 326 289 354 35 325 288 263 289 302 302 311 309 294 294 300 257 229 19 40 16 354 352 336 324 331 347 346 330 325 322 315 314 310 304 322 331 313 290 302 298 298 298
201 235 239 281 292 308 328 312 285 279 290 304 299 302 298 287 305 354 19 316 304 287 260 271 315 321 322 323 311 315 324 334 323 327 317 325 324 303 311 307 271 279 317 337
299 319 288 284 284 283 279 322 343 327 317 311 295 284 291 14 30 76 48 16 330 318 328 346 323 314 319 331 335 332 341 340 316 301 292 295 315 299 302 301 16 6 64 50
264 279 270 283 337 323 309 320 328 304 285 328 346 315 47 73 93 296 221 213 240 327 317 321 353 358 330 343 345 337 331 324 313 310 317 329 321 336 316 323 325 136 56 342